sat.trackr.live / text

‹ back to catalog

STARLINK-34315

NORAD 64266 · 2025-120L

PAYLOAD ACTIVE UNKNOWN

§ Identity

Operator
Country
US
Launch date
2025-06-04
Launch site
AFWTR
Launch vehicle
Mass (kg)
RCS (m²)

Purposes: comms

External: N2YO · Heavens-Above · Gunter

§ Orbital elements

Epoch: 2026-09-20T13:36:34.802208Z

Period
93.85 min
Inclination
53.1586°
Eccentricity
0.0001452
Mean motion
15.34405219 rev/d
Perigee alt
461.7 km
Apogee alt
463.7 km
Semi-major
6,840.8 km
B*
3.6555e-4
RAAN
289.3186°
Arg perigee
87.0384°
Mean anomaly
273.0785°
Rev number
7,372

§ Raw data

STARLINK-343151 64266U 25120L   26263.56706947  .00011996  00000+0  36555-3 0  99992 64266  53.1586 289.3186 0001452  87.0384 273.0785 15.34405219 73728

JSON: /api/v1/satellites/64266 · /tle

For live sub-satellite position, see the globe view (requires WebGL).

§ Visibility from observer

Set your observer location to see the next 7 days of passes ≥ 10°. The values pass through the URL so the page stays shareable.

No JS? Fill the form by hand. The geolocation button needs JavaScript.